Weather History for Orlando International, FL

Change the Weather History Date:

Thursday, October 31, 2013

  Actual Average Record
Temperature  
Mean Temperature 77 °F 72 °F  
Max Temperature 88 °F 82 °F 90 °F (1922)
Min Temperature 66 °F 62 °F 44 °F (1993)
Degree Days  
Heating Degree Days 0 0  
Month to date heating degree days 0 0  
Since 1 July heating degree days 0 5  
Cooling Degree Days 12 7  
Month to date cooling degree days 375 331  
Year to date cooling degree days 3360 3207  
Growing Degree Days 27 (Base 50)    
Moisture  
Dew Point 66 °F    
Average Humidity 73    
Maximum Humidity 100    
Minimum Humidity 45    
Precipitation  
Precipitation 0.00 in 0.07 in 2.79 in (1958)
Month to date precipitation 0.15 3.31  
Year to date precipitation 41.52 45.98  
Sea Level Pressure  
Sea Level Pressure 30.09 in    
Wind  
Wind Speed 6 mph (SE)    
Max Wind Speed 16 mph    
Max Gust Speed 24 mph    
Visibility 10 miles    
Events      
T = Trace of Precipitation, MM = Missing Value Source: NWS Daily Summary

Daily Weather History Graph

Daily Weather History Graph

Search for Another Location

Airport:

Trip Planner

Search our weather history database for the weather conditions in past years. The results will help you decide how hot, cold, wet, or windy it might be!

Date:

Astronomy

Oct. 31, 2013 Rise Set
Actual Time 7:36 AM EDT 6:40 PM EDT
Civil Twilight 7:12 AM EDT 7:05 PM EDT
Nautical Twilight 6:44 AM EDT 7:32 PM EDT
Astronomical Twilight 6:16 AM EDT 8:00 PM EDT
Moon 4:38 AM EDT (10/31) 4:46 PM EDT (10/31)
Length of Visible Light 11h 52m
Length of Day
11h 04m
Waning Crescent, 10% of the Moon is Illuminated
Oct 31
Waning Crescent
Nov 3
New
Nov 10
First Quarter
Nov 17
Full
Nov 25
Last Quarter

Hourly Weather History & Observations

Time (EDT) Temp. Heat Index Dew Point Humidity Pressure Visibility Wind Dir Wind Speed Gust Speed Precip Events Conditions
12:53 AM 71.1 °F - 66.9 °F 87% 30.15 in 10.0 mi Calm Calm - N/A   Mostly Cloudy
1:53 AM 70.0 °F - 66.9 °F 90% 30.14 in 10.0 mi NNE 3.5 mph - N/A   Scattered Clouds
2:53 AM 68.0 °F - 66.0 °F 93% 30.14 in 10.0 mi North 4.6 mph - N/A   Scattered Clouds
3:53 AM 68.0 °F - 66.0 °F 93% 30.12 in 10.0 mi Calm Calm - N/A   Mostly Cloudy
4:53 AM 68.0 °F - 66.0 °F 93% 30.12 in 10.0 mi North 3.5 mph - N/A   Scattered Clouds
5:53 AM 66.9 °F - 66.0 °F 97% 30.13 in 10.0 mi Calm Calm - N/A   Partly Cloudy
6:53 AM 66.0 °F - 64.9 °F 96% 30.13 in 10.0 mi Calm Calm - N/A   Scattered Clouds
7:53 AM 69.1 °F - 66.0 °F 90% 30.14 in 10.0 mi NE 3.5 mph - N/A   Scattered Clouds
8:53 AM 70.0 °F - 66.9 °F 90% 30.15 in 10.0 mi Calm Calm - N/A   Mostly Cloudy
9:53 AM 77.0 °F - 68.0 °F 74% 30.15 in 10.0 mi ESE 5.8 mph - N/A   Scattered Clouds
10:53 AM 82.0 °F 84.5 °F 66.9 °F 60% 30.14 in 10.0 mi East 9.2 mph - N/A   Scattered Clouds
11:53 AM 84.9 °F 86.6 °F 64.9 °F 51% 30.13 in 10.0 mi SE 15.0 mph 19.6 mph N/A   Scattered Clouds
12:53 PM 84.0 °F 86.3 °F 66.0 °F 55% 30.10 in 10.0 mi SSE 8.1 mph - N/A   Scattered Clouds
1:53 PM 87.1 °F 88.9 °F 64.9 °F 48% 30.06 in 10.0 mi South 9.2 mph 16.1 mph N/A   Mostly Cloudy
2:53 PM 86.0 °F 86.8 °F 63.0 °F 46% 30.04 in 10.0 mi South 9.2 mph - N/A   Mostly Cloudy
3:53 PM 86.0 °F 86.3 °F 62.1 °F 44% 30.02 in 10.0 mi South 9.2 mph 16.1 mph N/A   Mostly Cloudy
4:53 PM 84.0 °F 84.5 °F 62.1 °F 47% 30.01 in 10.0 mi SE 6.9 mph - N/A   Mostly Cloudy
5:53 PM 81.0 °F 83.8 °F 68.0 °F 65% 30.01 in 10.0 mi ESE 12.7 mph - N/A   Mostly Cloudy
6:53 PM 78.1 °F - 66.9 °F 68% 30.01 in 10.0 mi ESE 8.1 mph - N/A   Mostly Cloudy
7:53 PM 75.9 °F - 66.9 °F 74% 30.02 in 10.0 mi SE 6.9 mph - N/A   Mostly Cloudy
8:53 PM 75.0 °F - 66.9 °F 76% 30.03 in 10.0 mi SE 5.8 mph - N/A   Overcast
9:53 PM 73.9 °F - 66.9 °F 79% 30.04 in 10.0 mi SE 5.8 mph - N/A   Mostly Cloudy
10:53 PM 73.9 °F - 68.0 °F 82% 30.03 in 10.0 mi SSE 8.1 mph - N/A   Mostly Cloudy
11:53 PM 73.0 °F - 68.0 °F 84% 30.03 in 10.0 mi SSE 5.8 mph - N/A   Mostly Cloudy